This is the latest recevied weather packets stored in our database for station/object OK1PHM-12. If no packets are shown the sender has not sent any weather packets the latest 10 day(s).
| Time | Temp. | Humidity | Pressure | Rain* | Wind** | Luminosity | Snow |
|---|---|---|---|---|---|---|---|
| 1777580417 | 7.78° C | 63% | 1030.5 hPa | - | - | - | - |
| 1777579517 | 7.78° C | 62% | 1030.4 hPa | - | - | - | - |
| 1777578616 | 8.33° C | 59% | 1030.3 hPa | - | - | - | - |
| 1777577715 | 8.89° C | 58% | 1030.1 hPa | - | - | - | - |
| 1777576814 | 9.44° C | 56% | 1029.9 hPa | - | - | - | - |
| 1777575913 | 10° C | 54% | 1029.8 hPa | - | - | - | - |
| 1777575013 | 10.56° C | 50% | 1029.7 hPa | - | - | - | - |
| 1777574112 | 11.67° C | 46% | 1029.6 hPa | - | - | - | - |
| 1777573211 | 12.22° C | 44% | 1029.5 hPa | - | - | - | - |
| 1777572310 | 13.33° C | 42% | 1029.5 hPa | - | - | - | - |
| 1777571409 | 13.89° C | 40% | 1029.4 hPa | - | - | - | - |
| 1777570509 | 14.44° C | 39% | 1029.2 hPa | - | - | - | - |
| 1777569608 | 14.44° C | 38% | 1029.2 hPa | - | - | - | - |
| 1777568707 | 14.44° C | 37% | 1029.2 hPa | - | - | - | - |
| 1777567806 | 15° C | 37% | 1029.2 hPa | - | - | - | - |
| 1777566905 | 15° C | 36% | 1029.2 hPa | - | - | - | - |
| 1777566004 | 15° C | 36% | 1029.2 hPa | - | - | - | - |
| 1777565103 | 14.44° C | 36% | 1029.3 hPa | - | - | - | - |
| 1777564203 | 15° C | 35% | 1029.4 hPa | - | - | - | - |
| 1777563302 | 16.11° C | 33% | 1029.3 hPa | - | - | - | - |
| 1777562401 | 15.56° C | 32% | 1029.4 hPa | - | - | - | - |
| 1777561500 | 15.56° C | 30% | 1029.4 hPa | - | - | - | - |
| 1777560599 | 16.11° C | 31% | 1029.5 hPa | - | - | - | - |
| 1777559698 | 16.11° C | 30% | 1029.4 hPa | - | - | - | - |
| 1777558797 | 16.11° C | 29% | 1029.7 hPa | - | - | - | - |
* Rain since midnight (hover to see other rain measurements)
** Current wind speed in m/s (hover to see current wind gust speed)